Regional Weather Roundup
Issued by NWS

Home | Current Version | Previous Version | Graphics & Text | Print | Product List | Glossary On
Versions: 1 2 3 4 5 6 7 8 9 10 11 12 13 14 15 16 17 18 19 20 21 22 23 24 25 26 27 28 29 30 31 32 33 34 35 36 37 38 39 40 41 42 43 44 45 46 47 48 49 50
000
ASUS44 KMEG 290610
RWRTN
TENNESSEE HOURLY STATE WEATHER ROUNDUP
NATIONAL WEATHER SERVICE MEMPHIS TN
100 AM CDT FRI MAY 29 2015

TNZ002-004-019-021-049-052-054-088>092-290700-
WEST TENNESSEE

CITY           SKY/WX    TMP DP  RH WIND       PRES   REMARKS
MEMPHIS INTL   PTCLDY    74  66  76 SE7       30.06F
NWS MEMPHIS      N/A     71 N/A N/A MISG        N/A
JACKSON        CLEAR     68  65  90 S3        30.09S
DYERSBURG      CLEAR     68  54  60 CALM      30.08F
PARIS          CLEAR     68  66  94 S6        30.09F
LEXINGTON      CLEAR     68  66  94 CALM      30.09F
$$

TNZ008-025-027-028-033-062-065-066-290700-
NORTH MIDDLE TENNESSEE

CITY           SKY/WX    TMP DP  RH WIND       PRES   REMARKS
NASHVILLE      PTCLDY    68  65  90 CALM      30.12F
CLARKSVILLE    MOCLDY    71  67  87 S3        30.10F
SMYRNA         PTCLDY    67  66  96 SE3       30.13F
COOKEVILLE     CLEAR     64  64 100 SE3G18    30.15F
CROSSVILLE     MOCLDY    67  62  84 S3        30.19F
$$

TNZ061-075-076-078-094-096-097-290700-
SOUTH MIDDLE TENNESSEE

CITY           SKY/WX    TMP DP  RH WIND       PRES   REMARKS
FAYETTEVILLE   CLEAR    N/A N/A N/A MISG      30.11F
TULLAHOMA      CLOUDY    68  64  88 S7        30.14F
WINCHESTER     CLOUDY    70  66  88 CALM      30.14F
MCMINNVILLE    PTCLDY    66  66 100 CALM      30.15F
COLUMBIA       MOCLDY    68  66  94 CALM      30.11S
SHELBYVILLE    PTCLDY    68  66  94 CALM      30.14F
$$

TNZ017-018-042-046-047-290700-
NORTHEAST TENNESSEE

CITY           SKY/WX    TMP DP  RH WIND       PRES   REMARKS
TRI CITIES     MOCLDY    65  64  97 CALM      30.21F
ELIZABETHTON   CLEAR     61  61 100 E6        30.23F
$$

TNZ012-013-036-069-073-074-290700-
CENTRAL EAST TENNESSEE

CITY           SKY/WX    TMP DP  RH WIND       PRES   REMARKS
KNOXVILLE      CLOUDY    70  65  84 CALM      30.17F
OAK RIDGE      CLOUDY    69  65  86 CALM      30.18F
GATLINBURG       N/A     66  66 100 CALM      30.18F
MORRISTOWN     CLEAR     66  64  94 E3        30.20F
$$

TNZ083-085-099-290700-
SOUTHEAST TENNESSEE

CITY           SKY/WX    TMP DP  RH WIND       PRES   REMARKS
CHATTANOOGA    MOCLDY    68  67  96 CALM      30.15F
$$

SKY/WX REPORTED AS FAIR MEANS FEW OR NO CLOUDS BELOW
12 THOUSAND FEET.




USA.gov is the U.S. government's official web portal to all federal, state and local government web resources and services.